Regional Weather Roundup
Issued by NWS

Home | Current Version | Previous Version | Text Only | Print | Product List | Glossary On
Versions: 1 2 3 4 5 6 7 8 9 10 11 12 13 14 15 16 17 18 19 20 21 22 23 24 25 26 27 28 29 30 31 32 33 34 35 36 37 38 39 40 41 42 43 44 45 46 47 48 49 50
000
ASCA44 KEWX 261220
RWRMX

LATIN AMERICA AND CARIBBEAN REGIONAL WEATHER ROUNDUP
NATIONAL WEATHER SERVICE AUSTIN/SAN ANTONIO TX
700 AM CDT MON SEP 26 2016

NOTE: "FAIR" INDICATED FEW OR NO CLOUDS BELOW 12,000 FEET WITH NO
SIGNIFICANT WEATHER AND/OR OBSTRUCTIONS TO VISIBILITY.

BAJA CALIFORNIA

CITY           SKY/WX    TMP DP  RH WIND       PRES   REMARKS
S.J. DEL CABO  CLEAR     72  66  83 NW6       29.87
TIJUANA        CLEAR     75  32  20 SE5       29.91F

NORTHWESTERN MEXICO

CITY           SKY/WX    TMP DP  RH WIND       PRES   REMARKS
CULIACAN       MOCLDY    72  70  94 N5        29.83
DURANGO        CLOUDY    57  57 100 NW5       30.23
HERMOSILLO     PTCLDY    73  57  56 CALM      29.89
CD. JUAREZ     MOCLDY    64  55  72 NE21      30.18

NORTHEASTERN MEXICO

CITY           SKY/WX    TMP DP  RH WIND       PRES   REMARKS
CHIHUAHUA      RAIN      57  57 100 N6        30.20
MATAMOROS      MOCLDY    79  73  83 N7        29.94
MONCLOVA         N/A    N/A N/A N/A MISG        N/A
MONTERREY      CLOUDY    70  68  94 NW5       30.00R
NUEVO LAREDO   MOCLDY    72  70  94 N6        30.00
REYNOSA        LGT RAIN  73  70  88 CALM      29.96  FOG
SALTILLO       CLOUDY    64  63  94 CALM      30.18S
TORREON        MOCLDY    68  64  88 NW107     30.10R
CD. VICTORIA   CLEAR     72  72 100 NW6       29.93

WESTERN MEXICO

CITY           SKY/WX    TMP DP  RH WIND       PRES   REMARKS
AGUASCALIENTES PTCLDY    59  57  94 NW2       30.22
COLIMA         PTCLDY    70  66  88 NE6       29.97S
DEL BAJIO      MOCLDY    59  57  94 CALM      30.24
GUADALAJARA    MOCLDY    63  61  94 SE3       30.13
MAZATLAN       CLEAR     73  72  94 NE3       29.83F
P. VALLARTA    CLEAR     75  73  94 NE5       29.84R
URUAPAN        FOG       61  61 100 CALM      30.12  VSB 1/8
ZACATECAS      FOG       55  50  82 CALM      30.23S VSB 1/4

CENTRAL MEXICO

CITY           SKY/WX    TMP DP  RH WIND       PRES   REMARKS
CUERNAVACA       N/A    N/A N/A N/A MISG        N/A
MEXICO CITY    MOCLDY    59  55  88 NE5       30.28R
MORELIA        MOCLDY    59  59 100 CALM      30.20
POZA RICA      CLEAR     75  73  94 CALM      29.93
QUERETARO      CLOUDY    59  59 100 CALM      30.26R
S. LUIS POTOSI MOCLDY    59  59 100 CALM      30.20R
TAMPICO        MOCLDY    77  75  94 CALM      29.88R
TOLUCA         FOG       52  50  93 CALM      30.34R VSB 1

SOUTHERN MEXICO

CITY           SKY/WX    TMP DP  RH WIND       PRES   REMARKS
ACAPULCO         N/A    N/A N/A N/A MISG        N/A
B. DE HUATULCO MOCLDY    73  59  60 CALM      29.91
OAXACA         CLOUDY    63  61  94 SE2       30.14S
P. ESCONDIDO   CLOUDY    75  72  88 E12       29.95
VERACRUZ       CLOUDY    75  73  94 CALM      29.84S
ZIHUATANEJO    MOCLDY    77  75  94 E2        29.82

YUCATAN PENINSULA

CITY           SKY/WX    TMP DP  RH WIND       PRES   REMARKS
CAMPECHE       CLOUDY    77  77 100 E12       29.86S
CANCUN         CLOUDY    79  77  94 E3        29.90R
CHETUMAL       CLOUDY    73  73 100 CALM      29.89
CD. DEL CARMEN MOCLDY    79  75  89 CALM      29.86
COZUMEL        CLOUDY    77  77 100 CALM      29.91R
MERIDA         CLOUDY    75  73  94 SE8       29.90R
MINATITLAN     MOCLDY    77  70  78 CALM      29.79
TAPACHULA      PTCLDY    77  72  83 N9        29.79F
TUX. GUTIERREZ CLOUDY    68  68 100 S3        29.94R FOG
VILLAHERMOSA   MOCLDY    75  73  94 CALM      29.88S

CENTRAL AMERICA

CITY           SKY/WX    TMP DP  RH WIND       PRES   REMARKS
BELIZE CITY    MOCLDY    79  79 100 SE2       29.90S
MANAGUA        PTSUNNY   75  73  94 S5        29.83R

CARIBBEAN

CITY           SKY/WX    TMP DP  RH WIND       PRES   REMARKS
ARUBA          MOSUNNY   86  79  79 E16       29.89R HX  99
CURACAO        MOSUNNY   86  75  70 E12       29.92R HX  95
KINGSTON       MOSUNNY   81  75  83 N6        29.92R
NASSAU         PTSUNNY   77  75  94 CALM      29.98R
SAN JUAN       MOSUNNY   82  77  83 CALM      29.97R HX  91
SANTO DOMINGO  MOSUNNY   79  75  89 NE5       29.92S
ST. CROIX      MOSUNNY   82  77  83 E5        29.98R HX  91
ST. KITTS      MOSUNNY   84  77  79 E12       29.97R HX  94
ST. THOMAS     SUNNY     86  77  74 NE8       29.96R HX  97

$$




USA.gov is the U.S. government's official web portal to all federal, state and local government web resources and services.